Zurück zum Katalog

STARLINK-37200

AktivKommunikationVLEO
NORAD 68339·PAYLOAD·🇺🇸 United States

Gestartet Mar 22, 2026 von Cape Canaveral Space Force Station

Loading…

Nächste Überflüge (nächste 24 Stunden)

TLE

AktuellSource: CelesTrak SupGP

Epoche: Sep 14, 2026, 22:42 UTC

1 68339C 26059U   26257.94631944 -.00029926  00000+0 -88395-3 0  2575
2 68339  53.1586 187.3842 0001335  90.3632  30.3524 15.34413837    14

Verfolge STARLINK-37200 in Echtzeit mit AllMySat

Download on the App Store